Flag for U.S.A. Weather past 2 weeks in Montgomery, Alabama, U.S.A.

Now
76 °F

Clear.


Feels Like: 78 °F
Forecast: 67 / 87 °F
Wind: 6 mph from East

Location: Maxwell Air Force Base / Montgomery

Current Time: May 23, 2015 at 10:21:29 PM

Latest Report: May 23, 2015 at 8:58 PM


Visibility: 10 mi

Pressure: 30.20 "Hg

Humidity: 53%

Dew point: 58 °F

Location of MontgomeryLocation

Historic Weather in Montgomery — Graph

°F

Montgomery temperature yesterday

Maximum temperature yesterday: 78 °F (at 4:58 PM)
Minimum temperature yesterday: 54 °F (at 5:58 AM)
Average temperature yesterday: 66 °F

Past Weeks' High & Low Weather Summary

 TemperatureHumidityPressure
High93 °F (May 10, 3:58 PM)100% (May 18, 4:03 AM)30.30 "Hg (May 18, 4:03 AM)
Low54 °F (May 22, 5:58 AM)23% (May 13, 3:58 PM)29.93 "Hg (May 20, 3:58 PM)
Average75 °F76%30.12 "Hg
* Reported May 8 8:58 PM — May 23 8:58 PM, Montgomery, Weather by CustomWeather, © 2015

Note: Actual official high and low records may vary slightly from our data, if they occured in-between our weather recording intervals... More about our weather records

Advertising

Montgomery weather history for previous 24 hours

 ConditionsComfort  
Time TempWeatherWind HumidityBarometerVisibility
8:58 PM
Sat, May 23
76 °FClear.6 mph53%30.20 "Hg10 mi
7:58 PM79 °FSunny.7 mph49%30.20 "Hg10 mi
6:58 PM83 °FSunny.8 mph45%30.19 "Hg10 mi
5:58 PM83 °FSunny.9 mph42%30.20 "Hg10 mi
4:58 PM85 °FSunny.10 mph39%30.22 "Hg10 mi
3:58 PM85 °FSunny.9 mph40%30.22 "Hg10 mi
2:58 PM84 °FSunny.9 mph43%30.24 "Hg10 mi
12:58 PM83 °FPassing clouds.12 mph46%30.28 "Hg10 mi
11:58 AM82 °FSunny.13 mph47%30.29 "Hg10 mi
10:58 AM80 °FSunny.13 mph53%30.30 "Hg10 mi
9:58 AM77 °FSunny.10 mph59%30.30 "Hg10 mi
8:58 AM74 °FSunny.14 mph64%30.30 "Hg10 mi
7:58 AM69 °FSunny.7 mph76%30.30 "Hg10 mi
6:58 AM63 °FSunny.6 mph85%30.29 "Hg10 mi
5:58 AM60 °FClear.5 mph89%30.27 "Hg10 mi
4:58 AM59 °FClear.2 mph92%30.24 "Hg10 mi
3:58 AM61 °FClear.2 mph91%30.22 "Hg10 mi
2:58 AM60 °FClear.2 mph90%30.20 "Hg10 mi
1:58 AM61 °FClear.No wind87%30.20 "Hg10 mi
12:58 AM62 °FClear.2 mph85%30.20 "Hg10 mi
11:58 PM
Fri, May 22
63 °FClear.2 mph84%30.22 "Hg10 mi
10:58 PM63 °FClear.1 mph90%30.22 "Hg10 mi
Weather by CustomWeather, © 2015

See weather overviewHow to use our weather pages